TimeEDT,TemperatureF,Dew PointF,Humidity,Sea Level PressureIn,VisibilityMPH,Wind Direction,Wind SpeedMPH,Gust SpeedMPH,PrecipitationIn,Events,Conditions,WindDirDegrees,DateUTC
12:15 AM,55.4,53.6,94,29.81,5.0,NE,8.1,-,N/A,,Overcast,40,2013-06-28 04:15:00
12:35 AM,55.4,53.6,94,29.81,7.0,ENE,9.2,-,0.06,,Overcast,70,2013-06-28 04:35:00
12:55 AM,55.4,53.6,94,29.81,5.0,ENE,8.1,-,0.07,,Overcast,70,2013-06-28 04:55:00
1:15 AM,55.4,53.6,94,29.81,5.0,ENE,15.0,-,N/A,,Overcast,70,2013-06-28 05:15:00
1:35 AM,55.4,51.8,88,29.80,10.0,ENE,11.5,18.4,N/A,,Overcast,70,2013-06-28 05:35:00
1:55 AM,55.4,51.8,88,29.79,10.0,ENE,15.0,-,N/A,,Overcast,60,2013-06-28 05:55:00
2:35 AM,55.4,51.8,88,29.77,8.0,NE,13.8,-,N/A,,Overcast,50,2013-06-28 06:35:00
2:55 AM,55.4,51.8,88,29.76,3.0,NE,15.0,-,N/A,,Overcast,50,2013-06-28 06:55:00
3:15 AM,55.4,51.8,88,29.76,3.0,ENE,13.8,-,N/A,,Overcast,60,2013-06-28 07:15:00
3:35 AM,55.4,51.8,88,29.74,3.0,ENE,16.1,20.7,0.03,,Overcast,60,2013-06-28 07:35:00
3:55 AM,55.4,51.8,88,29.74,5.0,ENE,11.5,17.3,0.04,,Overcast,60,2013-06-28 07:55:00
4:15 AM,55.4,51.8,88,29.72,7.0,ENE,15.0,-,0.05,,Overcast,60,2013-06-28 08:15:00
4:35 AM,55.4,51.8,88,29.69,8.0,ENE,15.0,20.7,0.10,,Overcast,60,2013-06-28 08:35:00
4:55 AM,55.4,51.8,88,29.71,10.0,East,9.2,23.0,0.11,,Overcast,90,2013-06-28 08:55:00
5:15 AM,55.4,51.8,88,29.69,10.0,East,9.2,19.6,0.03,,Overcast,80,2013-06-28 09:15:00
5:35 AM,55.4,51.8,88,29.69,9.0,ENE,9.2,-,0.04,,Overcast,70,2013-06-28 09:35:00
5:55 AM,55.4,51.8,88,29.69,10.0,ENE,15.0,-,0.04,,Overcast,60,2013-06-28 09:55:00
6:15 AM,55.4,51.8,88,29.70,10.0,ENE,11.5,-,N/A,,Overcast,60,2013-06-28 10:15:00
6:35 AM,53.6,51.8,94,29.69,6.0,ENE,10.4,16.1,N/A,,Overcast,60,2013-06-28 10:35:00
6:55 AM,55.4,51.8,88,29.68,2.5,ENE,11.5,-,N/A,,Overcast,60,2013-06-28 10:55:00
7:15 AM,55.4,51.8,88,29.68,5.0,NE,12.7,-,N/A,,Overcast,50,2013-06-28 11:15:00
7:35 AM,55.4,51.8,88,29.67,3.0,NE,12.7,-,N/A,,Overcast,50,2013-06-28 11:35:00
7:55 AM,55.4,51.8,88,29.66,3.0,NE,13.8,-,N/A,,Overcast,40,2013-06-28 11:55:00
8:15 AM,55.4,51.8,88,29.66,2.5,NE,12.7,-,N/A,,Overcast,50,2013-06-28 12:15:00
8:35 AM,55.4,51.8,88,29.65,2.5,NE,9.2,-,N/A,,Overcast,50,2013-06-28 12:35:00
8:55 AM,55.4,53.6,94,29.63,1.5,NE,10.4,-,N/A,,Overcast,40,2013-06-28 12:55:00
9:15 AM,55.4,53.6,94,29.62,1.0,NE,9.2,-,N/A,,Overcast,40,2013-06-28 13:15:00
9:35 AM,55.4,53.6,94,29.61,1.8,NNE,9.2,-,N/A,,Overcast,30,2013-06-28 13:35:00
9:55 AM,57.2,53.6,88,29.60,5.0,NE,9.2,-,0.03,,Overcast,50,2013-06-28 13:55:00
10:15 AM,57.2,53.6,88,29.60,6.0,NE,6.9,-,0.03,,Overcast,40,2013-06-28 14:15:00
10:35 AM,57.2,53.6,88,29.59,10.0,NNE,8.1,-,0.03,,Overcast,30,2013-06-28 14:35:00
10:55 AM,57.2,53.6,88,29.58,10.0,NNE,9.2,-,0.03,,Overcast,30,2013-06-28 14:55:00
11:15 AM,57.2,55.4,94,29.57,9.0,North,10.4,-,N/A,,Overcast,10,2013-06-28 15:15:00
11:35 AM,59.0,55.4,88,29.58,7.0,NE,6.9,-,N/A,,Overcast,50,2013-06-28 15:35:00
11:55 AM,60.8,57.2,88,29.58,3.0,NE,6.9,-,N/A,,Overcast,50,2013-06-28 15:55:00
12:15 PM,60.8,57.2,88,29.58,1.8,North,5.8,-,N/A,,Overcast,10,2013-06-28 16:15:00
12:35 PM,60.8,57.2,88,29.57,1.2,North,6.9,-,N/A,,Overcast,10,2013-06-28 16:35:00
12:55 PM,60.8,57.2,88,29.56,0.8,North,6.9,-,N/A,,Overcast,10,2013-06-28 16:55:00
1:15 PM,60.8,57.2,88,29.55,1.0,North,6.9,-,N/A,,Overcast,10,2013-06-28 17:15:00
1:35 PM,62.6,59.0,88,29.55,1.8,NNE,5.8,-,N/A,,Overcast,30,2013-06-28 17:35:00
1:55 PM,62.6,60.8,94,29.55,2.0,NNE,4.6,-,N/A,,Overcast,30,2013-06-28 17:55:00
2:15 PM,62.6,60.8,94,29.55,5.0,North,5.8,-,N/A,,Overcast,10,2013-06-28 18:15:00
2:35 PM,64.4,60.8,88,29.54,5.0,NNE,6.9,-,N/A,,Overcast,20,2013-06-28 18:35:00
2:55 PM,64.4,60.8,88,29.53,5.0,NNE,6.9,-,N/A,,Overcast,30,2013-06-28 18:55:00
3:15 PM,64.4,62.6,94,29.53,7.0,North,6.9,-,N/A,,Overcast,10,2013-06-28 19:15:00
3:35 PM,66.2,62.6,88,29.53,8.0,North,8.1,-,N/A,,Overcast,10,2013-06-28 19:35:00
3:55 PM,66.2,60.8,83,29.53,5.0,NNW,6.9,-,N/A,,Overcast,330,2013-06-28 19:55:00
4:15 PM,64.4,60.8,88,29.53,4.0,North,8.1,-,N/A,,Overcast,360,2013-06-28 20:15:00
4:35 PM,64.4,60.8,88,29.53,3.0,North,8.1,-,N/A,Thunderstorm,Overcast,10,2013-06-28 20:35:00
4:55 PM,64.4,60.8,88,29.53,3.0,North,6.9,-,N/A,Thunderstorm,Overcast,360,2013-06-28 20:55:00
5:15 PM,62.6,60.8,94,29.53,3.0,NE,11.5,-,0.22,Thunderstorm,Thunderstorm,50,2013-06-28 21:15:00
5:35 PM,64.4,60.8,88,29.53,10.0,North,6.9,-,0.32,Thunderstorm,Overcast,360,2013-06-28 21:35:00
5:55 PM,64.4,60.8,88,29.53,10.0,North,6.9,-,0.32,,Overcast,360,2013-06-28 21:55:00
6:15 PM,64.4,60.8,88,29.53,10.0,NNE,6.9,-,N/A,,Overcast,20,2013-06-28 22:15:00
6:35 PM,64.4,60.8,88,29.53,8.0,NNE,6.9,-,N/A,,Overcast,20,2013-06-28 22:35:00
6:55 PM,64.4,60.8,88,29.53,8.0,North,5.8,-,N/A,,Overcast,10,2013-06-28 22:55:00
7:15 PM,64.4,60.8,88,29.54,6.0,North,5.8,-,N/A,,Overcast,360,2013-06-28 23:15:00
7:35 PM,64.4,60.8,88,29.54,1.5,North,5.8,-,N/A,,Overcast,360,2013-06-28 23:35:00
7:55 PM,64.4,60.8,88,29.53,0.8,NNE,5.8,-,N/A,,Overcast,20,2013-06-28 23:55:00
8:15 PM,64.4,60.8,88,29.54,0.5,NNE,5.8,-,N/A,,Overcast,20,2013-06-29 00:15:00
8:35 PM,64.4,60.8,88,29.54,0.2,NE,4.6,-,N/A,,Overcast,40,2013-06-29 00:35:00
8:55 PM,64.4,62.6,94,29.55,0.5,North,5.8,-,N/A,,Overcast,10,2013-06-29 00:55:00
9:15 PM,64.4,62.6,94,29.56,0.5,North,6.9,-,N/A,,Overcast,10,2013-06-29 01:15:00
9:35 PM,64.4,60.8,88,29.57,1.2,North,10.4,-,N/A,,Overcast,360,2013-06-29 01:35:00
9:56 PM,64.4,60.8,88,29.58,9.0,NNE,6.9,-,N/A,,Overcast,20,2013-06-29 01:56:00
10:15 PM,64.4,60.8,88,29.57,8.0,ENE,4.6,-,N/A,,Overcast,70,2013-06-29 02:15:00
10:35 PM,64.4,60.8,88,29.57,3.0,Calm,Calm,-,N/A,,Overcast,0,2013-06-29 02:35:00
10:55 PM,64.4,60.8,88,29.56,0.8,Calm,Calm,-,N/A,,Overcast,0,2013-06-29 02:55:00
11:15 PM,64.4,60.8,88,29.56,0.5,Calm,Calm,-,N/A,,Overcast,0,2013-06-29 03:15:00
11:35 PM,64.4,62.6,94,29.56,0.5,North,3.5,-,N/A,,Overcast,360,2013-06-29 03:35:00
11:55 PM,64.4,60.8,88,29.56,0.5,Calm,Calm,-,N/A,,Overcast,0,2013-06-29 03:55:00